This is the latest recevied weather packets stored in our database for station/object 9M8ZAL-13. If no packets are shown the sender has not sent any weather packets the latest 10 day(s).
| Time | Temp. | Humidity | Pressure | Rain* | Wind** | Luminosity | Snow |
|---|---|---|---|---|---|---|---|
| 1777088934 | 31.67° C | - | 1008.9 hPa | - | - | 1007 W/m² | - |
| 1777088334 | 31.67° C | - | 1008.8 hPa | - | - | 1008 W/m² | - |
| 1777087733 | 31.67° C | - | 1008.9 hPa | - | - | 1009 W/m² | - |
| 1777087133 | 31.11° C | - | 1009 hPa | - | - | 1005 W/m² | - |
| 1777086533 | 30.56° C | - | 1009.2 hPa | - | - | 1004 W/m² | - |
| 1777085933 | 30.56° C | - | 1009.1 hPa | - | - | 1001 W/m² | - |
| 1777085333 | 30° C | - | 1009.1 hPa | - | - | 1002 W/m² | - |
| 1777084733 | 30.56° C | - | 1009.3 hPa | - | - | 1004 W/m² | - |
| 1777084133 | 30.56° C | - | 1009.5 hPa | - | - | 1002 W/m² | - |
| 1777083533 | 30.56° C | - | 1009.6 hPa | - | - | 1002 W/m² | - |
| 1777082933 | 30.56° C | - | 1009.5 hPa | - | - | 1004 W/m² | - |
| 1777082333 | 30.56° C | - | 1009.7 hPa | - | - | 1005 W/m² | - |
| 1777081733 | 30° C | - | 1009.4 hPa | - | - | 1003 W/m² | - |
| 1777081133 | 30° C | - | 1009.6 hPa | - | - | 1002 W/m² | - |
| 1777080533 | 30° C | - | 1009.8 hPa | - | - | 1002 W/m² | - |
| 1777079933 | 30.56° C | - | 1009.8 hPa | - | - | 1001 W/m² | - |
| 1777079333 | 31.11° C | - | 1009.5 hPa | - | - | 1005 W/m² | - |
| 1777078733 | 31.11° C | - | 1009.3 hPa | - | - | 1006 W/m² | - |
| 1777078133 | 30° C | - | 1009.1 hPa | - | - | 1006 W/m² | - |
| 1777077533 | 29.44° C | - | 1009.5 hPa | - | - | 1006 W/m² | - |
| 1777076933 | 29.44° C | - | 1009.4 hPa | - | - | 1004 W/m² | - |
| 1777076333 | 29.44° C | - | 1009.2 hPa | - | - | 1003 W/m² | - |
| 1777075733 | 28.89° C | - | 1009.4 hPa | - | - | 1002 W/m² | - |
| 1777075133 | 28.89° C | - | 1009.2 hPa | - | - | 1001 W/m² | - |
| 1777074533 | 28.33° C | - | 1009.4 hPa | - | - | 1001 W/m² | - |
* Rain since midnight (hover to see other rain measurements)
** Current wind speed in m/s (hover to see current wind gust speed)